[[{"header":{"parameterUnit":"m.s-1","parameterCategory":1,"la1":30.2992,"la2":30.254,"lo1":-89.0895,"lo2":-89.0443,"dy":0.0025,"dx":0.0025,"nx":19,"ny":19,"refTime":"2026-05-07T09:00:00:Z","depth":0,"parameterNumber":2,"parameterNumberName":"U-component_of_WINDS"},"data":[0,0,0,2.4625,2.4623,2.4541,2.454,2.4451,2.445,0,0,0,0,0,0,0,0,0,0,0,2.4662,2.4662,2.4625,2.4623,2.4541,2.454,2.4451,2.445,0,0,0,0,0,0,0,0,0,0,0,2.4662,2.4662,2.4662,2.4623,2.4541,2.454,2.4451,2.4507,0,0,0,0,0,0,0,0,0,0,2.4584,2.4632,2.4662,2.4662,2.4622,2.4541,2.454,2.4509,2.4503,2.4496,0,2.4497,0,2.4472,2.4446,2.4445,0,0,0,2.4612,2.4638,2.4604,2.4662,2.4622,2.4541,2.4575,2.4506,2.4499,2.4489,2.4495,2.4491,2.4471,2.4445,2.4445,2.4447,2.4447,0,0,2.4617,2.4654,2.4608,2.46,2.4618,2.4578,2.4572,2.4501,2.451,2.4495,2.4489,2.4469,2.4445,2.4444,2.4446,2.4447,0,0,0,2.4637,2.4658,2.4625,2.4604,2.4588,2.4575,2.4569,2.4513,2.4499,2.4488,2.4468,2.4444,2.4443,2.4446,2.4446,2.4508,0,0,0,2.4639,2.4669,2.4627,2.4649,2.459,2.455,2.4583,2.4504,2.4495,2.4469,2.4444,2.4443,2.4445,2.4446,2.4505,2.453,0,0,0,2.4663,2.4672,2.4665,2.4651,2.4618,2.455,2.4532,2.4501,2.4484,2.4445,2.4443,2.4445,2.4446,2.4503,2.4526,2.4541,0,0,0,2.4698,2.472,2.4667,2.4683,2.4619,2.4591,2.4532,2.4509,2.4484,2.4444,2.4445,2.4446,2.4502,2.4523,2.4539,2.456,2.4573,0,0,2.4746,2.4727,2.4734,2.4684,2.4675,2.46,2.4599,2.4539,2.45,2.4466,2.4465,2.4506,2.4526,2.4541,2.4634,2.4645,0,0,0,2.4761,2.4767,2.4756,2.4735,2.4692,2.4656,2.4593,2.4571,2.454,2.4492,2.4515,2.4525,2.4533,2.4541,2.455,2.4552,2.4452,2.4452,2.4452,2.4881,2.4833,2.484,2.4781,2.4761,2.4696,2.4674,2.4632,2.4587,2.4593,2.4583,2.4646,2.4657,2.4663,2.4667,2.4591,2.4591,2.4591,2.4591,2.4946,2.4945,2.4886,2.4872,2.4819,2.4805,2.4743,2.4711,2.4689,2.465,2.4653,2.4614,2.4677,2.4677,2.4595,2.4595,2.4594,2.4594,2.4593,2.5018,2.5009,2.4983,2.4947,2.4924,2.4862,2.4844,2.4796,2.475,2.4754,2.4736,2.4734,2.4726,2.4749,2.4749,2.4749,2.4749,2.475,2.475,2.5103,2.5072,2.5064,2.502,2.4999,2.4966,2.4901,2.4878,2.484,2.4806,2.4805,2.4759,2.4693,2.4677,2.4753,2.4752,2.4752,2.4752,2.4751,2.5184,2.5158,2.5146,2.5126,2.5069,2.5049,2.4988,2.4946,2.492,2.4912,2.4864,2.4824,2.48,2.4793,2.4779,2.4876,2.4876,2.4876,2.4876,2.5244,2.5228,2.5204,2.5175,2.514,2.5084,2.5069,2.5017,2.4959,2.4939,2.4918,2.4896,2.489,2.4869,2.486,2.4846,2.4959,2.4959,2.4959,2.529,2.5269,2.5267,2.5213,2.5165,2.5123,2.5106,2.5072,2.5,2.4961,2.4922,2.4918,2.4882,2.4873,2.4832,2.4819,2.4793,0,0]},{"header":{"parameterUnit":"m.s-1","parameterCategory":1,"la1":30.2992,"la2":30.254,"lo1":-89.0895,"lo2":-89.0443,"dy":0.0025,"dx":0.0025,"nx":19,"ny":19,"refTime":"2026-05-07T09:00:00:Z","depth":0,"parameterNumber":3,"parameterNumberName":"V-component_of_WINDS"},"data":[0,0,0,6.0006,6.0008,6.0129,6.013,6.0288,6.029,0,0,0,0,0,0,0,0,0,0,0,5.9976,5.9977,6.0005,6.0009,6.0129,6.013,6.0288,6.029,0,0,0,0,0,0,0,0,0,0,0,5.9975,5.9977,5.9978,6.0009,6.0129,6.013,6.0288,6.0194,0,0,0,0,0,0,0,0,0,0,6.0076,6.0055,5.9976,5.9978,6.001,6.0129,6.013,6.019,6.02,6.0237,0,6.0274,0,6.0285,6.0301,6.0302,0,0,0,6.0003,6.0046,6.0074,5.9979,6.0011,6.0129,6.0073,6.0195,6.0207,6.025,6.0276,6.0281,6.0287,6.0302,6.0303,6.054,6.0541,0,0,5.9996,6.0,6.0066,6.0082,6.0067,6.0069,6.0077,6.0202,6.0229,6.0276,6.0285,6.029,6.0303,6.0304,6.0539,6.054,0,0,0,5.9981,5.9995,6.002,6.0076,6.0097,6.0073,6.0082,6.0223,6.0231,6.0287,6.0292,6.0304,6.0306,6.0537,6.0539,6.0612,0,0,0,5.9977,5.9986,6.0017,6.002,6.0095,6.0163,6.01,6.0222,6.0236,6.0291,6.0304,6.0308,6.0536,6.0538,6.0607,6.0645,0,0,0,5.9966,5.9985,6.0005,6.002,6.0073,6.016,6.0175,6.0225,6.024,6.0302,6.0308,6.0535,6.0538,6.0602,6.0638,6.071,0,0,0,5.9954,6.0065,6.0006,6.0132,6.0072,6.0205,6.0174,6.0273,6.0335,6.0305,6.0536,6.0539,6.0601,6.0633,6.0705,6.0772,6.08,0,0,6.0096,6.0083,6.0157,6.0107,6.0253,6.0187,6.0342,6.0393,6.0393,6.049,6.0496,6.0609,6.0637,6.0709,6.0956,6.0979,0,0,0,6.0203,6.0256,6.0294,6.0355,6.0399,6.0439,6.0467,6.0486,6.0569,6.0445,6.0653,6.067,6.0712,6.0744,6.0763,6.0799,6.0554,6.0554,6.0553,6.0408,6.0407,6.0529,6.0542,6.0601,6.0629,6.0676,6.0706,6.0684,6.0733,6.0762,6.0913,6.095,6.0965,6.1002,6.0797,6.0797,6.0797,6.0797,6.0617,6.0693,6.0664,6.0772,6.0769,6.0858,6.0889,6.0871,6.0952,6.0891,6.0927,6.0861,6.099,6.1022,6.0803,6.0802,6.0801,6.0801,6.08,6.0752,6.0788,6.0812,6.0901,6.0968,6.0975,6.1056,6.1049,6.1041,6.1078,6.1108,6.1107,6.1105,6.1093,6.1093,6.1094,6.1094,6.1095,6.1095,6.0884,6.0908,6.0979,6.1036,6.1075,6.1124,6.1154,6.1191,6.1229,6.1217,6.1217,6.119,6.1003,6.0957,6.1103,6.1102,6.11,6.11,6.1099,6.1097,6.1048,6.1158,6.1197,6.1264,6.1332,6.1321,6.1397,6.1425,6.1465,6.1431,6.1294,6.1278,6.1263,6.1225,6.1431,6.1431,6.1431,6.1431,6.1212,6.1204,6.1315,6.1378,6.1439,6.1441,6.1563,6.1587,6.1603,6.162,6.1589,6.1537,6.1521,6.1515,6.1494,6.1458,6.172,6.172,6.172,6.1343,6.1341,6.1448,6.1467,6.1519,6.1563,6.1677,6.1748,6.1755,6.1732,6.1633,6.1621,6.1537,6.151,6.1484,6.1452,6.1386,0,0]}]]